This is the latest recevied weather packets stored in our database for station/object K4GDX. If no packets are shown the sender has not sent any weather packets the latest 10 day(s).
| Time | Temp. | Humidity | Pressure | Rain* | Wind** | Luminosity | Snow |
|---|---|---|---|---|---|---|---|
| 1777477012 | 28.33° C | 69% | 1014.9 hPa | 0 mm | - | 860 W/m² | - |
| 1777476717 | 27.78° C | 69% | 1014.9 hPa | 0 mm | - | 868 W/m² | - |
| 1777476411 | 27.78° C | 70% | 1015 hPa | 0 mm | - | 784 W/m² | - |
| 1777476106 | 27.22° C | 70% | 1015.2 hPa | 0 mm | - | 814 W/m² | - |
| 1777475806 | 27.22° C | 70% | 1015.4 hPa | 0 mm | - | 330 W/m² | - |
| 1777475505 | 27.22° C | 71% | 1015.4 hPa | 0 mm | - | 679 W/m² | - |
| 1777475204 | 27.22° C | 71% | 1015.5 hPa | 0 mm | - | 789 W/m² | - |
| 1777474903 | 26.67° C | 72% | 1015.8 hPa | 0 mm | - | 759 W/m² | - |
| 1777474600 | 26.67° C | 72% | 1015.9 hPa | 0 mm | - | 803 W/m² | - |
| 1777474299 | 26.11° C | 73% | 1016 hPa | 0 mm | - | 462 W/m² | - |
| 1777473996 | 26.11° C | 73% | 1016 hPa | 0 mm | - | 380 W/m² | - |
| 1777473696 | 26.11° C | 72% | 1015.9 hPa | 0 mm | - | 287 W/m² | - |
| 1777473397 | 26.11° C | 72% | 1015.8 hPa | 0 mm | - | 237 W/m² | - |
| 1777473096 | 26.11° C | 71% | 1015.8 hPa | 0 mm | - | 165 W/m² | - |
| 1777472796 | 26.67° C | 71% | 1016 hPa | 0 mm | - | 223 W/m² | - |
| 1777472496 | 26.67° C | 72% | 1016 hPa | 0 mm | - | 359 W/m² | - |
| 1777472190 | 26.67° C | 72% | 1016 hPa | 0 mm | - | 902 W/m² | - |
| 1777471882 | 26.11° C | 73% | 1016.2 hPa | 0 mm | - | 721 W/m² | - |
| 1777471584 | 26.11° C | 75% | 1016.2 hPa | 0 mm | - | 675 W/m² | - |
| 1777471281 | 25.56° C | 76% | 1016.2 hPa | 0 mm | - | 747 W/m² | - |
| 1777470977 | 25° C | 76% | 1016.3 hPa | 0 mm | - | 701 W/m² | - |
| 1777470677 | 25° C | 76% | 1016.4 hPa | 0 mm | - | 244 W/m² | - |
| 1777470375 | 24.44° C | 76% | 1016.5 hPa | 0 mm | - | 629 W/m² | - |
| 1777470075 | 24.44° C | 77% | 1016.6 hPa | 0 mm | - | 221 W/m² | - |
| 1777469772 | 24.44° C | 79% | 1016.5 hPa | 0 mm | - | 466 W/m² | - |
* Rain latest hour (hover to see other rain measurements)
** Current wind speed in m/s (hover to see current wind gust speed)